* Astronomy

Members Login
Username 
 
Password 
    Remember Me  
Post Info TOPIC: Asteroid 2005 UG169


L

Posts: 131433
Date:
Asteroid 2005 UG169
Permalink  
 


Orbital elements:
2011 UG169                                               Earth MOID = 0.0919 AU
Epoch 2011 Aug. 27.0 TT = JDT 2455800.5                 MPC
M 315.93047              (2000.0)            P               Q
n   0.60723495     Peri.  295.09546     +0.71595044     -0.69767296
a   1.3811204      Node   109.15713     +0.64998973     +0.65259906
e   0.2177775      Incl.    1.56717     +0.25481036     +0.29557894
P   1.62           H   25.8           G   0.15           U   5

MPEC 2011 - W65



__________________
Page 1 of 1  sorted by
 
Quick Reply

Please log in to post quick replies.



Create your own FREE Forum
Report Abuse
Powered by ActiveBoard